Starlink 5672

operational
NORAD ID: 55468 Int'l Des: 2023-015 Owner: SPXS Country: US Constellation: starlink
LEOCIRCULAR

Über Starlink 5672

Beschreibung wird geladen...

Live-Position

3D-Globus wird geladen...

Nächste Überflüge

Höhenverlauf

Altitude vs Time

uPlot chart will show altitude changes over time

Zweizeiliger Elementsatz

1 55468U 23015V 25302.31409052 .00000492 00000-0 51485-4 0 9997
2 55468 43.0046 319.6791 0001235 267.5722 92.4979 15.02537973150991
Epoch: 29. Okt. 2025 • Age: 56 hours

Aktueller Status

Höhe 569.5 km
Geschwindigkeit 7.58 km/s
Subsatellitenpunkt -37.98°S, 15.87°W
Startdatum 2. Feb. 2023
Alter 2.7 years
Typ internet

Technische Details

Klassifizierung Payload
Masse 305.00 kg
Trockenmasse 290.00 kg
Gesamtmasse 305.00 kg
Länge 0.20 m
Durchmesser 2.80 m
Spannweite 9.00 m
Form Box + pan
Hersteller SPXS
Bus-Typ Starlink
Phasenstatus In Orbit
Besitzer/Staat SPXS/US

Große Konstellationen

Loading constellations...